RYR54CT LFOT-EGSS

Flight info

Callsign RYR54CT
Flight time 0h 59m
Altitude 18000
Route AMB A34 VANAD/N0419F320 UN874 BAMES UT191 PODEM/N0373F260 UT191 KESAX UT421 KUNAV Y8 BANVA
Aircraft B738/M-SDE2E3FGHIRWXY/LB1

Departure

Time 2026-05-05 12:04
Airport Tours Val de Loire Airport (LFOT)

Arrival

Time 2026-05-05 13:04
Airport London Stansted Airport (EGSS)
Time Latitude Longitude Altitude Speed Heading
2026-05-05 11:45 47.43190 0.71958 353 ft 0 kts 147°
2026-05-05 11:59 47.43177 0.71977 362 ft 6 kts 124°
2026-05-05 11:59 47.43186 0.72046 361 ft 11 kts 63°
2026-05-05 11:59 47.43159 0.72137 357 ft 11 kts 145°
2026-05-05 11:59 47.43096 0.72193 362 ft 11 kts 149°
2026-05-05 12:00 47.43028 0.72257 364 ft 12 kts 147°
2026-05-05 12:00 47.43002 0.72325 364 ft 5 kts 51°
2026-05-05 12:00 47.43066 0.72358 365 ft 16 kts 14°
2026-05-05 12:00 47.43171 0.72398 363 ft 15 kts 15°
2026-05-05 12:01 47.43270 0.72443 363 ft 15 kts 17°
2026-05-05 12:01 47.43365 0.72486 367 ft 14 kts
2026-05-05 12:01 47.43458 0.72516 367 ft 13 kts 15°
2026-05-05 12:01 47.43576 0.72564 365 ft 19 kts 14°
2026-05-05 12:02 47.43702 0.72615 365 ft 18 kts 15°
2026-05-05 12:02 47.43831 0.72664 366 ft 22 kts 15°
2026-05-05 12:02 47.43984 0.72728 366 ft 23 kts 14°
2026-05-05 12:02 47.44135 0.72788 360 ft 22 kts 15°
2026-05-05 12:03 47.44271 0.72859 366 ft 21 kts 48°
2026-05-05 12:03 47.44278 0.73058 369 ft 20 kts 105°
2026-05-05 12:03 47.44188 0.73158 364 ft 19 kts 206°
2026-05-05 12:03 47.44055 0.73099 364 ft 22 kts 195°
2026-05-05 12:04 47.43680 0.72945 367 ft 94 kts 196°
2026-05-05 12:04 47.42816 0.72595 371 ft 161 kts 198°
2026-05-05 12:04 47.41673 0.72117 1090 ft 170 kts 199°
2026-05-05 12:04 47.40554 0.71811 2283 ft 167 kts 179°
2026-05-05 12:05 47.39501 0.72623 3004 ft 192 kts 131°
2026-05-05 12:05 47.39039 0.74643 3342 ft 227 kts 91°
2026-05-05 12:05 47.39123 0.77104 3667 ft 250 kts 83°
2026-05-05 12:05 47.39399 0.79753 4065 ft 273 kts 81°
2026-05-05 12:06 47.39727 0.82567 4930 ft 276 kts 81°
2026-05-05 12:06 47.40038 0.85379 5895 ft 281 kts 81°
2026-05-05 12:06 47.40334 0.88262 6747 ft 286 kts 82°
2026-05-05 12:06 47.40763 0.91127 7616 ft 289 kts 63°
2026-05-05 12:07 47.42025 0.93400 8487 ft 290 kts 40°
2026-05-05 12:07 47.43350 0.95677 9307 ft 297 kts 57°
2026-05-05 12:07 47.44417 0.98282 10254 ft 297 kts 59°
2026-05-05 12:07 47.45512 1.00971 10702 ft 316 kts 59°
2026-05-05 12:08 47.46686 1.03857 11005 ft 337 kts 59°
2026-05-05 12:08 47.47886 1.06810 12027 ft 331 kts 59°
2026-05-05 12:08 47.49055 1.09681 13379 ft 322 kts 60°
2026-05-05 12:08 47.50159 1.12392 14232 ft 326 kts 60°
2026-05-05 12:09 47.51264 1.15112 14943 ft 330 kts 60°
2026-05-05 12:09 47.52455 1.18045 15705 ft 334 kts 60°
2026-05-05 12:09 47.53684 1.20973 16536 ft 337 kts 57°
2026-05-05 12:09 47.55238 1.23594 17334 ft 343 kts 41°
2026-05-05 12:10 47.57288 1.25433 18116 ft 348 kts 22°
2026-05-05 12:10 47.59627 1.26377 18783 ft 349 kts 12°
2026-05-05 12:10 47.62013 1.27084 19260 ft 353 kts 12°
2026-05-05 12:10 47.64389 1.27815 19886 ft 353 kts 12°
2026-05-05 12:11 47.66531 1.28456 20474 ft 353 kts 12°
2026-05-05 12:11 47.68947 1.29187 21027 ft 355 kts 13°
2026-05-05 12:11 47.71369 1.29948 21620 ft 356 kts 13°
2026-05-05 12:11 47.73788 1.30735 22198 ft 357 kts 14°
2026-05-05 12:12 47.76222 1.31548 22724 ft 360 kts 14°
2026-05-05 12:12 47.78677 1.32383 23228 ft 363 kts 14°
2026-05-05 12:12 47.81146 1.33233 23657 ft 366 kts 14°
2026-05-05 12:12 47.83641 1.34097 24070 ft 369 kts 14°
2026-05-05 12:13 47.86149 1.34969 24499 ft 371 kts 14°
2026-05-05 12:13 47.88671 1.35849 24918 ft 373 kts 15°
2026-05-05 12:13 47.91207 1.36735 25341 ft 375 kts 15°
2026-05-05 12:13 47.93637 1.37585 25745 ft 377 kts 15°
2026-05-05 12:14 47.96298 1.38516 26172 ft 380 kts 15°
2026-05-05 12:14 47.98876 1.39420 26577 ft 382 kts 15°
2026-05-05 12:14 48.01471 1.40331 26969 ft 384 kts 15°
2026-05-05 12:14 48.04110 1.41074 27325 ft 390 kts
2026-05-05 12:15 48.06806 1.40456 27676 ft 397 kts 343°
2026-05-05 12:15 48.09390 1.38944 28104 ft 400 kts 338°
2026-05-05 12:15 48.11938 1.37219 28450 ft 404 kts 337°
2026-05-05 12:15 48.14507 1.35488 28799 ft 407 kts 338°
2026-05-05 12:16 48.17121 1.33828 29167 ft 409 kts 340°
2026-05-05 12:16 48.19783 1.32272 29530 ft 412 kts 342°
2026-05-05 12:16 48.22489 1.30840 29857 ft 414 kts 343°
2026-05-05 12:16 48.25245 1.29535 30168 ft 416 kts 346°
2026-05-05 12:17 48.28043 1.28367 30455 ft 419 kts 347°
2026-05-05 12:17 48.30895 1.27435 30704 ft 420 kts 354°
2026-05-05 12:17 48.33806 1.27043 30993 ft 421 kts
2026-05-05 12:17 48.36731 1.27218 31286 ft 421 kts
2026-05-05 12:18 48.39642 1.27819 31568 ft 423 kts 13°
2026-05-05 12:18 48.42526 1.28679 31836 ft 424 kts 15°
2026-05-05 12:18 48.48298 1.30733 31831 ft 424 kts 16°
2026-05-05 12:19 48.54126 1.32893 31855 ft 439 kts 16°
2026-05-05 12:19 48.60114 1.35075 31859 ft 452 kts 16°
2026-05-05 12:20 48.66267 1.37289 31838 ft 456 kts 15°
2026-05-05 12:20 48.72509 1.39535 31864 ft 463 kts 15°
2026-05-05 12:21 48.78862 1.41832 31869 ft 475 kts 15°
2026-05-05 12:21 48.85305 1.44165 31871 ft 483 kts 15°
2026-05-05 12:22 48.92028 1.44888 31881 ft 489 kts 356°
2026-05-05 12:22 48.98692 1.42695 31891 ft 493 kts 345°
2026-05-05 12:23 49.05291 1.39805 31874 ft 493 kts 344°
2026-05-05 12:23 49.11892 1.36934 31877 ft 493 kts 345°
2026-05-05 12:24 49.18494 1.34135 31885 ft 492 kts 345°
2026-05-05 12:24 49.24809 1.31482 31884 ft 492 kts 345°
2026-05-05 12:25 49.31485 1.28673 31887 ft 492 kts 345°
2026-05-05 12:25 49.36963 1.26359 31883 ft 491 kts 345°
2026-05-05 12:26 49.43624 1.23535 31881 ft 491 kts 345°
2026-05-05 12:26 49.50211 1.20734 31884 ft 491 kts 345°
2026-05-05 12:27 49.56794 1.17929 31887 ft 491 kts 344°
2026-05-05 12:27 49.63379 1.15114 31899 ft 491 kts 344°
2026-05-05 12:28 49.69955 1.12295 31905 ft 490 kts 344°
2026-05-05 12:28 49.76528 1.09470 31911 ft 490 kts 344°
2026-05-05 12:29 49.83098 1.06638 31911 ft 490 kts 344°
2026-05-05 12:29 49.89664 1.03800 31915 ft 489 kts 344°
2026-05-05 12:30 49.96220 1.00958 31915 ft 489 kts 343°
2026-05-05 12:30 50.02716 0.98134 31921 ft 487 kts 343°
2026-05-05 12:31 50.08935 0.95424 31924 ft 486 kts 343°
2026-05-05 12:31 50.15494 0.92556 31927 ft 485 kts 343°
2026-05-05 12:32 50.21997 0.89706 31936 ft 485 kts 343°
2026-05-05 12:32 50.28492 0.86850 31938 ft 484 kts 343°
2026-05-05 12:33 50.34967 0.83996 31938 ft 484 kts 343°
2026-05-05 12:33 50.41449 0.81130 31939 ft 483 kts 343°
2026-05-05 12:34 50.47782 0.78322 31947 ft 483 kts 343°
2026-05-05 12:34 50.52086 0.76407 31951 ft 483 kts 343°
2026-05-05 12:35 50.54390 0.75080 31928 ft 482 kts 332°
2026-05-05 12:35 50.57196 0.72120 31967 ft 478 kts 319°
2026-05-05 12:35 50.59750 0.68881 31930 ft 463 kts 321°
2026-05-05 12:35 50.62262 0.65835 31917 ft 449 kts 321°
2026-05-05 12:36 50.67203 0.59935 31916 ft 443 kts 321°
2026-05-05 12:36 50.72079 0.54053 31922 ft 442 kts 321°
2026-05-05 12:37 50.76904 0.48168 31703 ft 433 kts 321°
2026-05-05 12:37 50.79262 0.45279 31434 ft 424 kts 321°
2026-05-05 12:37 50.81580 0.42433 31015 ft 420 kts 321°
2026-05-05 12:38 50.83879 0.39606 30609 ft 418 kts 321°
2026-05-05 12:38 50.86138 0.36825 30200 ft 416 kts 321°
2026-05-05 12:38 50.88416 0.34017 29714 ft 414 kts 321°
2026-05-05 12:38 50.89943 0.32133 29369 ft 413 kts 321°
2026-05-05 12:39 50.92198 0.29348 28987 ft 408 kts 321°
2026-05-05 12:39 50.94429 0.26591 28536 ft 406 kts 321°
2026-05-05 12:39 50.96645 0.23849 28112 ft 402 kts 321°
2026-05-05 12:39 50.98102 0.22043 27831 ft 400 kts 321°
2026-05-05 12:40 51.00298 0.19320 27386 ft 398 kts 320°
2026-05-05 12:40 51.02464 0.16629 26963 ft 395 kts 320°
2026-05-05 12:40 51.04627 0.13940 26532 ft 393 kts 320°
2026-05-05 12:40 51.06769 0.11273 26008 ft 391 kts 320°
2026-05-05 12:41 51.08912 0.08601 25580 ft 389 kts 320°
2026-05-05 12:41 51.11030 0.05956 25162 ft 387 kts 320°
2026-05-05 12:41 51.13143 0.03316 24737 ft 385 kts 320°
2026-05-05 12:41 51.15239 0.00694 24317 ft 383 kts 320°
2026-05-05 12:42 51.17328 -0.01922 23900 ft 381 kts 321°
2026-05-05 12:42 51.19276 -0.04365 23507 ft 379 kts 321°
2026-05-05 12:42 51.21342 -0.06958 23012 ft 377 kts 321°
2026-05-05 12:42 51.23398 -0.09541 22550 ft 375 kts 321°
2026-05-05 12:43 51.25435 -0.12100 22124 ft 372 kts 322°
2026-05-05 12:43 51.27668 -0.14166 21630 ft 372 kts 339°
2026-05-05 12:43 51.30159 -0.15050 21138 ft 371 kts 356°
2026-05-05 12:43 51.32727 -0.14959 20755 ft 367 kts
2026-05-05 12:44 51.35258 -0.14674 20297 ft 364 kts
2026-05-05 12:44 51.37786 -0.14386 19824 ft 364 kts
2026-05-05 12:44 51.40305 -0.14109 19458 ft 358 kts
2026-05-05 12:44 51.42760 -0.13850 18908 ft 352 kts
2026-05-05 12:45 51.45197 -0.13602 18221 ft 351 kts
2026-05-05 12:45 51.47632 -0.13359 17554 ft 353 kts
2026-05-05 12:45 51.50073 -0.13119 17214 ft 347 kts
2026-05-05 12:45 51.52288 -0.12902 16904 ft 343 kts
2026-05-05 12:46 51.54729 -0.12663 16480 ft 341 kts
2026-05-05 12:46 51.57094 -0.12432 16061 ft 339 kts
2026-05-05 12:46 51.59444 -0.12201 15667 ft 337 kts
2026-05-05 12:46 51.61771 -0.11973 15317 ft 334 kts
2026-05-05 12:47 51.64086 -0.11746 14930 ft 332 kts
2026-05-05 12:47 51.66385 -0.11520 14557 ft 331 kts
2026-05-05 12:47 51.68617 -0.11300 14180 ft 329 kts
2026-05-05 12:47 51.70954 -0.11070 13827 ft 326 kts
2026-05-05 12:48 51.73191 -0.10850 13580 ft 319 kts
2026-05-05 12:48 51.75371 -0.10441 13310 ft 313 kts 16°
2026-05-05 12:48 51.77387 -0.09158 12986 ft 310 kts 24°
2026-05-05 12:48 51.79352 -0.07740 12630 ft 308 kts 24°
2026-05-05 12:49 51.81294 -0.06332 12306 ft 306 kts 24°
2026-05-05 12:49 51.83229 -0.04940 11978 ft 303 kts 24°
2026-05-05 12:49 51.85132 -0.03584 11639 ft 301 kts 23°
2026-05-05 12:49 51.87075 -0.02207 11313 ft 300 kts 23°
2026-05-05 12:50 51.88965 -0.00947 11015 ft 297 kts 17°
2026-05-05 12:50 51.90944 -0.00090 10771 ft 292 kts 12°
2026-05-05 12:50 51.92922 0.00611 10532 ft 289 kts 12°
2026-05-05 12:50 51.94866 0.01290 10329 ft 284 kts 12°
2026-05-05 12:51 51.96786 0.01982 10031 ft 283 kts 12°
2026-05-05 12:51 51.98705 0.02694 9724 ft 282 kts 12°
2026-05-05 12:51 52.00611 0.03415 9404 ft 280 kts 13°
2026-05-05 12:51 52.02474 0.04130 9288 ft 272 kts 13°
2026-05-05 12:52 52.04290 0.04831 9163 ft 264 kts 13°
2026-05-05 12:52 52.06052 0.05515 9042 ft 257 kts 13°
2026-05-05 12:52 52.07764 0.06181 8934 ft 249 kts 13°
2026-05-05 12:52 52.09425 0.06818 8789 ft 243 kts 10°
2026-05-05 12:53 52.11071 0.06655 8596 ft 237 kts 339°
2026-05-05 12:53 52.12412 0.05167 8352 ft 236 kts 310°
2026-05-05 12:53 52.13131 0.02804 8121 ft 235 kts 281°
2026-05-05 12:53 52.13063 0.00167 7874 ft 235 kts 252°
2026-05-05 12:54 52.10820 -0.03395 7403 ft 234 kts 196°
2026-05-05 12:54 52.09226 -0.03873 7181 ft 233 kts 186°
2026-05-05 12:54 52.07587 -0.03823 6664 ft 240 kts 172°
2026-05-05 12:55 52.05927 -0.03428 6215 ft 242 kts 170°
2026-05-05 12:55 52.04257 -0.03088 5922 ft 242 kts 175°
2026-05-05 12:55 52.02579 -0.02973 5659 ft 242 kts 177°
2026-05-05 12:55 52.00896 -0.02896 5407 ft 241 kts 176°
2026-05-05 12:56 51.99219 -0.02816 5138 ft 241 kts 177°
2026-05-05 12:56 51.97570 -0.02732 4901 ft 240 kts 176°
2026-05-05 12:56 51.95904 -0.02640 4699 ft 237 kts 176°
2026-05-05 12:56 51.94290 -0.02545 4658 ft 229 kts 175°
2026-05-05 12:57 51.92693 -0.02448 4613 ft 230 kts 175°
2026-05-05 12:57 51.91079 -0.02345 4589 ft 235 kts 175°
2026-05-05 12:57 51.89434 -0.02240 4560 ft 238 kts 175°
2026-05-05 12:57 51.87769 -0.02131 4522 ft 239 kts 175°
2026-05-05 12:58 51.86105 -0.02025 4468 ft 239 kts 175°
2026-05-05 12:58 51.84438 -0.01918 4423 ft 240 kts 175°
2026-05-05 12:58 51.82783 -0.01811 4411 ft 236 kts 175°
2026-05-05 12:58 51.81151 -0.01703 4311 ft 234 kts 175°
2026-05-05 12:59 51.79546 -0.01604 4234 ft 226 kts 176°
2026-05-05 12:59 51.78019 -0.01197 3956 ft 220 kts 153°
2026-05-05 12:59 51.76875 0.00300 3736 ft 209 kts 122°
2026-05-05 13:00 51.76880 0.04328 3411 ft 188 kts 58°
2026-05-05 13:00 51.77523 0.06176 3187 ft 189 kts 58°
2026-05-05 13:01 51.80081 0.10801 2423 ft 176 kts 44°
2026-05-05 13:01 51.80942 0.12102 2222 ft 164 kts 43°
2026-05-05 13:01 51.81758 0.13317 1990 ft 154 kts 43°
2026-05-05 13:01 51.82513 0.14466 1805 ft 145 kts 43°
2026-05-05 13:02 51.83250 0.15577 1583 ft 143 kts 43°
2026-05-05 13:02 51.83972 0.16666 1403 ft 141 kts 43°
2026-05-05 13:02 51.84694 0.17753 1161 ft 144 kts 42°
2026-05-05 13:02 51.85435 0.18856 966 ft 146 kts 41°
2026-05-05 13:03 51.86171 0.19964 813 ft 146 kts 41°
2026-05-05 13:03 51.86905 0.21073 596 ft 144 kts 42°
2026-05-05 13:03 51.87638 0.22183 411 ft 145 kts 42°
2026-05-05 13:03 51.88344 0.23247 337 ft 128 kts 42°
2026-05-05 13:04 51.88882 0.24051 340 ft 77 kts 43°
2026-05-05 13:04 51.89155 0.24462 340 ft 27 kts 44°
2026-05-05 13:04 51.89245 0.24648 336 ft 19 kts 80°
2026-05-05 13:04 51.89207 0.24794 350 ft 8 kts 131°
2026-05-05 13:05 51.89198 0.24811 349 ft 0 kts 131°
2026-05-05 13:06 51.89155 0.24911 352 ft 13 kts 97°
2026-05-05 13:06 51.89213 0.25043 348 ft 19 kts 54°
2026-05-05 13:06 51.89207 0.25235 357 ft 20 kts 124°
2026-05-05 13:06 51.89264 0.25409 351 ft 19 kts 43°
2026-05-05 13:07 51.89348 0.25558 350 ft 18 kts 75°
2026-05-05 13:07 51.89294 0.25697 348 ft 12 kts 131°
2026-05-05 13:07 51.89243 0.25788 354 ft 10 kts 132°
2026-05-05 13:07 51.89220 0.25843 350 ft 2 kts 83°
2026-05-05 13:08 51.89239 0.25877 354 ft 6 kts 47°
2026-05-05 13:08 51.89262 0.25915 356 ft 1 kts 44°